GW7317 Weather Reports


time (UTC)temp
F
wind
direction
speed
knots
gust
knots
rain 1hr
in
rain 24hr
in
rain mn
in
humidity
%
barometer
mb
20260504222657 80 206 1.7 2.6 0.00 0.00 0.00 56 1011.7
20260504222154 80 153 3.5 5.2 0.00 0.00 0.00 55 1011.5
20260504221651 81 223 0.9 1.7 0.00 0.00 0.00 54 1011.7
20260504221148 80 221 0.9 1.7 0.00 0.00 0.00 54 1011.6
20260504220644 80 281 1.7 5.2 0.00 0.00 0.00 54 1011.8
20260504220143 81 236 0.0 3.5 0.00 0.00 0.00 54 1011.6
20260504215638 81 156 1.7 3.5 0.00 0.00 0.00 53 1011.7
20260504215136 81 207 0.0 1.7 0.00 0.00 0.00 53 1011.6
20260504214632 81 150 2.6 6.1 0.00 0.00 0.00 52 1011.9
20260504214128 82 177 0.0 0.9 0.00 0.00 0.00 53 1012.1
20260504213625 82 173 2.6 2.6 0.00 0.00 0.00 51 1011.8
20260504213122 82 236 1.7 3.5 0.00 0.00 0.00 51 1012.0
20260504212618 82 216 0.9 0.9 0.00 0.00 0.00 52 1012.0
20260504212115 82 166 2.6 3.5 0.00 0.00 0.00 50 1012.1
20260504211612 82 206 0.9 0.9 0.00 0.00 0.00 51 1012.3
20260504211109 82 148 0.0 2.6 0.00 0.00 0.00 50 1012.2
20260504210607 82 224 0.0 0.9 0.00 0.00 0.00 51 1012.5
20260504205601 82 115 0.0 0.9 0.00 0.00 0.00 51 1012.5
20260504205058 83 154 1.7 5.2 0.00 0.00 0.00 49 1012.5
20260504204556 83 188 0.9 2.6 0.00 0.00 0.00 48 1012.7
20260504204055 83 238 1.7 2.6 0.00 0.00 0.00 49 1012.6
20260504203553 83 182 0.9 1.7 0.00 0.00 0.00 49 1012.7
20260504203050 83 207 0.9 2.6 0.00 0.00 0.00 49 1012.8
20260504202545 83 131 2.6 2.6 0.00 0.00 0.00 48 1012.8
20260504202042 82 231 0.9 1.7 0.00 0.00 0.00 50 1013.2
20260504201539 82 208 0.9 1.7 0.00 0.00 0.00 50 1013.3
20260504201037 82 166 1.7 1.7 0.00 0.00 0.00 50 1013.2
20260504200532 83 205 2.6 5.2 0.00 0.00 0.00 47 1013.3
20260504200030 84 226 0.9 2.6 0.00 0.00 0.00 47 1013.6
20260504195526 84 216 0.9 1.7 0.00 0.00 0.00 48 1013.5
20260504195023 83 238 0.9 1.7 0.00 0.00 0.00 48 1013.7
20260504194519 82 141 0.9 0.9 0.00 0.00 0.00 50 1013.6
20260504194015 83 159 0.0 3.5 0.00 0.00 0.00 50 1013.7
20260504193512 83 194 0.0 1.7 0.00 0.00 0.00 50 1013.7
20260504193011 82 186 1.7 1.7 0.00 0.00 0.00 49 1013.8
20260504192508 82 189 0.9 6.1 0.00 0.00 0.00 48 1013.9
20260504192007 83 204 1.7 2.6 0.00 0.00 0.00 47 1013.9
20260504191504 83 165 1.7 0.9 0.00 0.00 0.00 48 1014.2
20260504190959 83 155 1.7 2.6 0.00 0.00 0.00 46 1014.2
20260504190455 82 239 1.7 2.6 0.00 0.00 0.00 50 1014.0
20260504185952 82 177 0.9 3.5 0.00 0.00 0.00 49 1014.4
20260504185449 81 230 0.9 3.5 0.00 0.00 0.00 51 1014.5
20260504184945 81 163 0.9 3.5 0.00 0.00 0.00 51 1014.6
20260504184441 81 149 0.9 0.9 0.00 0.00 0.00 51 1014.5
20260504183937 81 258 3.5 7.0 0.00 0.00 0.00 50 1014.6
20260504183434 82 221 0.9 3.5 0.00 0.00 0.00 49 1014.4
20260504182932 81 192 0.9 5.2 0.00 0.00 0.00 50 1014.7
20260504182429 82 260 0.9 2.6 0.00 0.00 0.00 49 1014.5
20260504181926 82 175 0.9 1.7 0.00 0.00 0.00 48 1014.6
20260504181423 83 210 1.7 2.6 0.00 0.00 0.00 46 1014.6
20260504180922 82 206 0.0 6.1 0.00 0.00 0.00 48 1014.7
20260504180420 83 124 1.7 5.2 0.00 0.00 0.00 45 1015.0
20260504175918 82 228 1.7 3.5 0.00 0.00 0.00 47 1015.1
20260504175415 82 232 1.7 2.6 0.00 0.00 0.00 47 1015.2
20260504174912 80 178 0.9 1.7 0.00 0.00 0.00 50 1015.1
20260504174410 80 146 1.7 2.6 0.00 0.00 0.00 50 1015.2
20260504173907 81 217 3.5 3.5 0.00 0.00 0.00 48 1015.0
20260504173403 82 214 0.9 2.6 0.00 0.00 0.00 50 1015.3
20260504172900 81 208 0.0 6.1 0.00 0.00 0.00 50 1015.4
20260504172357 81 207 1.7 5.2 0.00 0.00 0.00 49 1015.3
20260504171853 80 237 1.7 6.1 0.00 0.00 0.00 50 1015.5
20260504171350 80 207 1.7 2.6 0.00 0.00 0.00 51 1015.7
20260504170847 80 30 1.7 1.7 0.00 0.00 0.00 51 1015.7
20260504170344 79 249 0.0 2.6 0.00 0.00 0.00 52 1015.7
20260504160302 78 244 0.9 1.7 0.00 0.00 0.00 54 1016.5
20260504150728 76 225 0.9 2.6 0.00 0.00 0.00 55 1016.6
20260504150225 76 198 0.9 2.6 0.00 0.00 0.00 55 1016.9
20260504141154 75 211 0.0 0.9 0.00 0.00 0.00 53 1016.6
20260504140650 75 183 0.9 0.9 0.00 0.00 0.00 56 1016.7
20260504140146 74 191 0.0 0.9 0.00 0.00 0.00 54 1016.5
20260504130614 64 151 0.0 0.0 0.00 0.00 0.00 78 1016.7
20260504130111 63 151 0.0 0.0 0.00 0.00 0.00 80 1016.5
20260504110502 57 151 0.0 0.0 0.00 0.00 0.00 91 1016.3
20260504100424 57 151 0.0 0.0 0.00 0.00 0.00 90 1016.5
20260504081818 60 150 0.0 0.0 0.00 0.00 0.00 79 1016.9
20260504081314 60 150 0.0 0.0 0.00 0.00 0.00 79 1017.0
20260504080810 61 150 0.0 0.0 0.00 0.00 0.00 79 1017.1
20260504080307 61 150 0.0 0.0 0.00 0.00 0.00 77 1017.3
20260504070235 61 150 0.0 0.0 0.00 0.00 0.00 75 1018.3
20260504060155 62 216 0.0 0.0 0.00 0.00 0.00 71 1018.8
20260504050623 62 216 0.0 0.0 0.00 0.00 0.00 72 1018.9
20260504050120 62 216 0.0 0.0 0.00 0.00 0.00 70 1019.0
20260504045617 62 216 0.0 0.0 0.00 0.00 0.00 69 1018.9
20260504045112 63 216 0.0 0.0 0.00 0.00 0.00 69 1018.9
20260504044610 63 216 0.0 0.0 0.00 0.00 0.00 67 1019.1
20260504044107 63 216 0.0 0.0 0.00 0.00 0.00 67 1019.0
20260504043604 64 216 0.0 0.0 0.00 0.00 0.00 66 1019.2
20260504043101 64 216 0.0 0.0 0.00 0.00 0.00 65 1019.0
20260504042558 64 216 0.0 0.0 0.00 0.00 0.00 63 1019.1
20260504042055 65 216 0.0 0.0 0.00 0.00 0.00 62 1019.3
20260504041550 65 216 0.0 0.0 0.00 0.00 0.00 60 1019.2
20260504041047 66 216 0.0 0.0 0.00 0.00 0.00 60 1019.1
20260504040545 66 216 0.0 0.0 0.00 0.00 0.00 58 1019.2
20260504040041 66 216 0.0 0.0 0.00 0.00 0.00 59 1019.1
20260504035538 67 216 0.0 0.9 0.00 0.00 0.00 57 1019.4
20260504035034 67 220 0.0 0.9 0.00 0.00 0.00 56 1019.2
20260504034533 67 203 0.0 0.9 0.00 0.00 0.00 56 1019.1
20260504034028 67 206 0.9 1.7 0.00 0.00 0.00 55 1019.1
20260504033527 68 206 0.0 0.0 0.00 0.00 0.00 55 1019.4
20260504033024 68 206 0.0 0.0 0.00 0.00 0.00 55 1019.2
20260504032521 68 207 0.9 0.9 0.00 0.00 0.00 54 1019.5
20260504032018 68 204 0.0 0.0 0.00 0.00 0.00 54 1019.2
20260504031515 68 204 0.0 0.0 0.00 0.00 0.00 53 1019.1
20260504031011 68 204 0.0 0.0 0.00 0.00 0.00 54 1018.8
20260504030508 68 204 0.0 0.0 0.00 0.00 0.00 53 1018.9
20260504030004 68 203 0.0 0.0 0.00 0.00 0.00 52 1018.6
20260504025501 69 203 0.0 0.0 0.00 0.00 0.00 52 1018.7
20260504024957 69 203 0.0 0.0 0.00 0.00 0.00 50 1018.7
20260504024454 69 195 0.9 1.7 0.00 0.00 0.00 50 1018.9
20260504023952 70 185 0.0 0.9 0.00 0.00 0.00 49 1018.9
20260504023449 70 217 1.7 1.7 0.00 0.00 0.00 49 1018.9
20260504022944 70 202 0.9 0.9 0.00 0.00 0.00 48 1018.8
20260504022441 70 212 0.0 2.6 0.00 0.00 0.00 48 1018.8
20260504021937 70 198 0.9 0.9 0.00 0.00 0.00 48 1018.8
20260504021435 71 215 0.9 2.6 0.00 0.00 0.00 47 1018.7
20260504020932 71 57 0.0 1.7 0.00 0.00 0.00 47 1018.6
20260504020428 71 193 0.0 0.9 0.00 0.00 0.00 47 1018.4
20260504015925 71 211 0.9 1.7 0.00 0.00 0.00 46 1018.5
20260504015421 71 217 0.9 0.9 0.00 0.00 0.00 46 1018.4
20260504014917 71 201 0.0 0.9 0.00 0.00 0.00 46 1018.5
20260504014413 72 193 0.9 2.6 0.00 0.00 0.00 46 1018.3
20260504013910 72 166 0.9 0.9 0.00 0.00 0.00 45 1018.5
20260504013409 72 203 0.9 1.7 0.00 0.00 0.00 44 1018.3
20260504012904 71 214 0.0 2.6 0.00 0.00 0.00 47 1018.2
20260504012403 71 198 0.0 0.9 0.00 0.00 0.00 47 1018.3
20260504011900 72 198 0.0 1.7 0.00 0.00 0.00 46 1018.2
20260504011356 72 203 0.9 0.9 0.00 0.00 0.00 46 1017.8
20260504010852 72 204 0.0 1.7 0.00 0.00 0.00 45 1018.1
20260504010348 73 156 0.0 0.0 0.00 0.00 0.00 45 1018.1
20260504005845 73 155 0.0 0.0 0.00 0.00 0.00 44 1018.0
20260504005342 73 122 0.0 0.0 0.00 0.00 0.00 46 1018.1
20260504004839 74 179 0.0 0.0 0.00 0.00 0.00 43 1018.1
20260504004337 74 178 0.0 0.9 0.00 0.00 0.00 43 1018.2
20260504003833 74 220 0.0 1.7 0.00 0.00 0.00 40 1018.2
20260504003330 75 216 0.0 1.7 0.00 0.00 0.00 41 1018.4
20260504002827 75 186 0.0 0.9 0.00 0.00 0.00 41 1018.2
20260504002323 75 238 0.9 5.2 0.00 0.00 0.00 38 1018.3
20260504001821 76 156 0.0 0.9 0.00 0.00 0.00 38 1018.1
20260504001318 76 156 0.0 0.9 0.00 0.00 0.00 36 1018.0
20260504000815 77 197 0.0 0.0 0.00 0.00 0.00 35 1018.2
20260504000312 77 171 0.0 0.0 0.00 0.00 0.00 35 1018.1
20260503235810 78 171 0.0 0.9 0.00 0.00 0.00 35 1018.6
20260503235307 78 179 0.9 1.7 0.00 0.00 0.00 34 1018.2
20260503234805 78 165 0.0 0.9 0.00 0.00 0.00 34 1018.3
20260503234302 79 176 0.0 3.5 0.00 0.00 0.00 32 1018.0
20260503233800 79 218 0.9 0.9 0.00 0.00 0.00 33 1018.2
20260503233255 80 223 0.0 0.9 0.00 0.00 0.00 34 1018.2
20260503232752 80 225 0.0 0.9 0.00 0.00 0.00 34 1018.4
20260503232250 79 212 0.0 0.9 0.00 0.00 0.00 33 1018.3
20260503231748 79 198 0.0 0.0 0.00 0.00 0.00 34 1018.6
20260503231245 80 202 0.9 1.7 0.00 0.00 0.00 33 1018.6
20260503230740 80 222 0.0 0.0 0.00 0.00 0.00 32 1018.4
20260503230238 80 223 0.0 1.7 0.00 0.00 0.00 32 1018.3
20260503225735 80 168 0.0 0.9 0.00 0.00 0.00 32 1018.2
20260503225235 80 160 0.0 0.9 0.00 0.00 0.00 33 1018.4
20260503224732 80 217 0.9 1.7 0.00 0.00 0.00 32 1018.6
20260503224230 80 216 0.0 1.7 0.00 0.00 0.00 33 1018.7
20260503223727 80 213 0.0 0.9 0.00 0.00 0.00 31 1018.7
20260503223225 80 167 0.9 1.7 0.00 0.00 0.00 31 1018.6